Regional Weather Roundup
Issued by NWS

Home | Current Version | Previous Version | Text Only | Print | Product List | Glossary On
Versions: 1 2 3 4 5 6 7 8 9 10 11 12 13 14 15 16 17 18 19 20 21 22 23 24 25 26 27 28 29 30 31 32 33 34 35 36 37 38 39 40 41 42 43 44 45 46 47 48 49 50
000
ASUS43 KMPX 271601
RWRMN
WEATHER ROUNDUP FOR MINNESOTA
NATIONAL WEATHER SERVICE TWIN CITIES/CHANHASSEN MN
1100 AM CDT FRI MAR 27 2015


NOTE: "FAIR" INDICATES FEW OR NO CLOUDS BELOW 12,000 FEET WITH NO
SIGNIFICANT WEATHER AND/OR OBSTRUCTIONS TO VISIBILITY. N/A MEANS
CURRENT SKY AND/OR WEATHER CONDITIONS ARE NOT AVAILABLE.

MNZ060>063-068>070-271700-
   Twin Cities Metro

CITY           SKY/WX    TMP DP  RH WIND       PRES   REMARKS
TWIN CITIES    MOSUNNY   27   2  34 VRB3      30.28S
ST PAUL        SUNNY     26   1  34 CALM      30.30S
CRYSTAL        SUNNY     28   3  34 N5        30.27F WCI  23
BLAINE         MOSUNNY   27   5  39 NW5       30.27F WCI  21
LAKEVILLE      SUNNY     25   7  46 E3        30.27F
EDEN PRAIRIE   SUNNY     27   5  39 CALM      30.27S
SOUTH ST PAUL  SUNNY     28   2  33 NE5       30.28F WCI  23
LAKE ELMO      FAIR      28   7  40 CALM      30.28F
$$
MNZ001>005-007-008-013>017-022>024-027-028-271700-
   Northwest Minnesota

CITY           SKY/WX    TMP DP  RH WIND       PRES   REMARKS
BEMIDJI        MOSUNNY   25   4  39 S9        30.21F WCI  16
HALLOCK        PTSUNNY   27  16  63 S12       30.18F WCI  16
ROSEAU         PTSUNNY   27  10  50 S13       30.19F WCI  16
WARROAD        MOSUNNY   27   9  46 S8        30.19F WCI  18
THIEF RVR FALL PTSUNNY   25  10  54 S13       30.19F WCI  13
CROOKSTON      MOSUNNY   28  10  47 SW15      30.21F WCI  17
FOSSTON        MOSUNNY   27   5  39 S14       30.20F WCI  15
DETROIT LAKES  MOSUNNY   27   9  46 S8        30.21F WCI  18
MOORHEAD       PTSUNNY   28   9  43 S10       30.23F WCI  19
PARK RAPIDS    MOSUNNY   25   4  40 SE3       30.21F
MAHNOMEN       FAIR      24   7  47 S10       30.21F WCI  14
$$
MNZ006-009>011-018-025>026-271700-
   North Central Minnesota

CITY           SKY/WX    TMP DP  RH WIND       PRES   REMARKS
BAUDETTE       SUNNY     24   5  44 S8        30.20F WCI  15
FLAG ISLAND    SUNNY     16   9  73 SE10      30.19F WCI   3
INTL FALLS     SUNNY     22   7  52 VRB5      30.22F WCI  16
WASKISH        SUNNY     25   9  50 W6        30.22F WCI  18
BIG FORK       SUNNY     25   7  46 S5        30.22F WCI  19
LONGVILLE      SUNNY     25   1  36 CALM      30.23F
GRAND RAPIDS   SUNNY     21   1  42 CALM      30.23F
ORR            SUNNY     23   1  39 CALM      30.20F
COOK           SUNNY     21   3  45 S5        30.23F WCI  15
WALKER         FAIR      23   1  37 S7        30.22F WCI  15
$$
MNZ012-019>021-037-271700-
   Northeast Minnesota

CITY           SKY/WX    TMP DP  RH WIND       PRES   REMARKS
DULUTH         MOSUNNY   22   0  38 CALM      30.22F
ELY            SUNNY     19   1  45 SE5       30.22F WCI  13
HIBBING        SUNNY     22   3  44 SE7       30.23F WCI  13
EVELETH        SUNNY     23   3  42 CALM      30.24S
DULUTH HARBOR  SUNNY     25   7  46 CALM      30.30F
TWO HARBORS    SUNNY     27   9  46 SW6       30.24S WCI  20
SILVER BAY     SUNNY     25   9  50 S3        30.23F
GRAND MARAIS     N/A     19   3  49 SE5       30.30F WCI  12
G MARAIS ARPRT SUNNY     18 -13  25 S5        30.19F WCI  11
$$
MNZ029>031-032-039>041-046>048-054>057-064-271700-
   West Central Minnesota

CITY           SKY/WX    TMP DP  RH WIND       PRES   REMARKS
FERGUS FALLS   MOSUNNY   27   1  33 S10       30.25F WCI  17
WHEATON        PTSUNNY   27  12  54 S10       30.25F WCI  17
MORRIS         MOSUNNY   27  12  54 S8        30.23F WCI  18
ALEXANDRIA     MOSUNNY   26   4  38 SW8       30.23F WCI  18
ELBOW LAKE     FAIR      27   7  42 S10       30.23F WCI  18
WADENA         MOSUNNY   27   7  43 SW7       30.22F WCI  19
GLENWOOD       MOSUNNY   27   7  43 S8        30.24F WCI  18
APPLETON       PTSUNNY   30   9  40 S5        30.25F WCI  25
BENSON         MOSUNNY   28  10  47 S6        30.25F WCI  22
ORTONVILLE     PTSUNNY   27   7  43 S7        30.24F WCI  19
MADISON        PTSUNNY   28   7  40 S5        30.24F WCI  23
WILLMAR        FAIR      27   9  46 SE7       30.27F WCI  19
$$
MNZ033>034-036-042>043-049>051-058-059-271700-
   Central Minnesota

CITY           SKY/WX    TMP DP  RH WIND       PRES   REMARKS
ST CLOUD       SUNNY     25   2  37 W3        30.26F
SAUK CENTRE    FAIR      26   5  40 SE3       30.25F
PAYNESVILLE    SUNNY     23   4  43 E5        30.26F WCI  17
AITKIN         SUNNY     25   1  36 CALM      30.23F
PINE RIVER     SUNNY     25   5  42 W5        30.26F WCI  19
BRAINERD       SUNNY     24   1  36 CALM      30.25F
STAPLES        SUNNY     25   1  36 S6        30.23F WCI  18
LONG PRAIRIE   FAIR      27   3  36 S6        30.24F WCI  20
LITTLE FALLS   SUNNY     27   1  33 SW5       30.26S WCI  21
LITCHFIELD     SUNNY     27   1  33 CALM      30.27F
MAPLE LAKE     SUNNY     27   7  41 S3        30.27F
$$
MNZ037-044-045-052-053-271700-
   East Central Minnesota

CITY           SKY/WX    TMP DP  RH WIND       PRES   REMARKS
PRINCETON      SUNNY     27   1  33 CALM      30.26F
MORA           SUNNY     27   7  43 CALM      30.28F
CAMBRIDGE      SUNNY     27  10  50 CALM      30.26S
RUSH CITY      SUNNY     24   6  47 CALM      30.27F
MOOSE LAKE     SUNNY     27   7  43 CALM      30.24F
HINCKLEY       FAIR      27   9  46 S3        30.26F
CLOQUET        SUNNY     23   1  39 CALM      30.23F
MCGREGOR       SUNNY     25   5  42 CALM      30.25F
$$
MNZ071>073-080-081-089-090-097-098-271700-
   Southwest Minnesota

CITY           SKY/WX    TMP DP  RH WIND       PRES   REMARKS
MONTEVIDEO     MOSUNNY   30  12  47 S5        30.27F WCI  25
GRANITE FALLS  SUNNY     28  12  52 SE6       30.28F WCI  21
CANBY          PTSUNNY   28  10  46 S7        30.25F WCI  21
MARSHALL       MOSUNNY   28   9  43 S5        30.26F WCI  23
REDWOOD FALLS  SUNNY     27  10  49 S7        30.27S WCI  19
OLIVIA         SUNNY     27  10  50 SE6       30.27S WCI  20
PIPESTONE      PTSUNNY   28   5  37 SW7       30.21F WCI  21
WINDOM         MOSUNNY   28  10  47 CALM      30.25S
WORTHINGTON    PTSUNNY   27   9  46 CALM      30.25S
JACKSON        MOSUNNY   30   9  40 CALM      30.25S
TRACY          MOSUNNY   28  13  52 CALM      30.25F
SLAYTON        PTSUNNY   27   2  35 CALM      30.24F
$$
MNZ065>067-074>077-082>085-091>093-271700-
   South Central Minnesota

CITY           SKY/WX    TMP DP  RH WIND       PRES   REMARKS
MANKATO        SUNNY     27   7  43 CALM      30.28S
NEW ULM        SUNNY     27   7  43 CALM      30.27S
ST JAMES       SUNNY     28  10  47 E5        30.28S WCI  23
FAIRMONT       SUNNY     28  10  47 S3        30.26R
GLENCOE        SUNNY     26  11  52 SE3       30.27F
FARIBAULT      SUNNY     25   7  46 CALM      30.28S
OWATONNA       SUNNY     23   9  54 NE3       30.26S
WASECA         SUNNY     25  10  54 N3        30.28S
ALBERT LEA     SUNNY     27  12  54 NE3       30.26R
$$
MNZ078>079-086>088-094>096-271700-
   Southeast Minnesota

CITY           SKY/WX    TMP DP  RH WIND       PRES   REMARKS
ROCHESTER      SUNNY     22   8  55 VRB3      30.26R
RED WING       SUNNY     28   3  34 E5        30.28S WCI  23
STANTON        SUNNY     25   7  46 CALM      30.27S
DODGE CENTER   SUNNY     25  10  54 CALM      30.25S
WINONA         SUNNY     30  14  51 CALM      30.28S
AUSTIN         SUNNY     25   9  50 CALM      30.26R
PRESTON        SUNNY     23   8  52 N7        30.26R WCI  14
$$
ABBREVIATIONS USED IN REMARKS
   TC - TEMPERATURES IN CELSIUS
  WCI - WIND CHILL INDEX
   HX - HEAT INDEX
  VSB - VISIBILITY
$$


USA.gov is the U.S. government's official web portal to all federal, state and local government web resources and services.